CW2628 Weather Reports


time (UTC)temp
C
wind
direction
speed
KPH
gust
KPH
rain 1hr
cm
rain 24hr
cm
rain mn
cm
humidity
%
barometer
mb
20260905205805 19 254 8.0 19.3 0.00 0.25 0.25 69 1020.5
20260905195805 18 257 3.2 4.8 0.00 0.25 0.25 67 1020.3
20260905195306 18 252 3.2 4.8 0.00 0.25 0.25 65 1020.2
20260905175805 19 275 0.0 0.0 0.00 0.25 0.25 66 1019.3
20260905165804 23 285 8.0 19.3 0.00 0.25 0.25 50 1018.6
20260905165306 23 272 8.0 19.3 0.00 0.25 0.25 50 1018.5
20260905155306 25 277 12.9 24.1 0.00 0.25 0.25 47 1018.2
20260905145306 25 253 11.3 22.5 0.00 0.25 0.25 48 1017.8
20260905135804 25 282 11.3 24.1 0.00 0.25 0.25 46 1017.7
20260905135306 25 275 11.3 19.3 0.00 0.25 0.25 48 1017.9
20260905125306 23 271 9.7 22.5 0.00 0.25 0.25 54 1018.1
20260905115804 22 252 8.0 19.3 0.00 0.25 0.25 65 1018.3
20260905115306 22 256 8.0 19.3 0.00 0.25 0.25 65 1018.3
20260905105306 20 270 14.5 24.1 0.00 0.25 0.25 71 1018.9
20260905095805 18 251 9.7 22.5 0.00 0.25 0.25 80 1018.9
20260905085804 16 258 3.2 16.1 0.08 0.25 0.25 88 1019.3
20260905085306 15 246 9.7 16.1 0.10 0.25 0.25 88 1019.4
20260905065804 16 262 0.0 1.6 0.05 0.05 0.05 81 1018.7
20260905065306 16 260 0.0 12.9 0.03 0.03 0.03 79 1018.6
20260905055805 18 287 6.4 27.4 0.00 0.00 0.00 67 1017.8
20260905045804 20 289 11.3 27.4 0.00 0.00 0.00 62 1016.5
20260905045306 20 282 9.7 20.9 0.00 0.00 0.00 61 1016.5
20260905025804 21 294 6.4 22.5 0.00 0.00 0.00 63 1013.2
20260905025306 21 302 8.0 22.5 0.00 0.00 0.00 63 1013.1
20260904235805 21 265 3.2 9.7 0.00 0.00 0.00 63 1011.5
20260904225306 19 205 0.0 0.0 0.00 0.00 0.00 72 1011.1
20260904215804 20 205 1.6 3.2 0.00 0.00 0.00 67 1011.1